timestamp,wind_dir_avg,wind_spd_avg,wind_spd_max_dir,wind_spd_gust,battery_voltage,lat,long
2023-07-30 00:04:00+00:00,218.0,4.96,217.0,5.62,12.81,47.59359,-54.27349
2023-07-30 00:14:01+00:00,210.0,6.26,206.0,7.29,12.41,47.59359,-54.27349
2023-07-30 00:24:01+00:00,213.0,5.25,214.0,5.72,12.41,47.59359,-54.27349
2023-07-30 00:34:01+00:00,221.0,4.61,223.0,5.24,12.41,47.59359,-54.27349
2023-07-30 00:44:01+00:00,232.0,5.72,240.0,6.9,12.41,47.59359,-54.27349
2023-07-30 00:54:01+00:00,232.0,6.06,236.0,6.64,12.41,47.59359,-54.27349
2023-07-30 01:04:01+00:00,237.0,6.58,236.0,7.54,12.41,47.59359,-54.27349
2023-07-30 01:14:01+00:00,247.0,5.57,245.0,6.26,12.41,47.59359,-54.27349
2023-07-30 01:24:01+00:00,265.0,6.09,262.0,6.78,12.41,47.59359,-54.27349
2023-07-30 01:34:01+00:00,266.0,4.98,266.0,5.31,12.41,47.59359,-54.27349
2023-07-30 01:44:01+00:00,269.0,6.29,271.0,6.9,12.41,47.59359,-54.27349
2023-07-30 01:54:01+00:00,265.0,7.68,271.0,8.47,12.41,47.59359,-54.27349
2023-07-30 02:04:01+00:00,271.0,8.27,270.0,8.93,12.41,47.59359,-54.27349
2023-07-30 02:14:01+00:00,279.0,7.39,285.0,8.19,12.41,47.59359,-54.27349
2023-07-30 02:24:01+00:00,276.0,5.05,284.0,5.82,12.41,47.59359,-54.27349
2023-07-30 02:34:01+00:00,139.0,2.49,142.0,3.78,12.41,47.59359,-54.27349
2023-07-30 02:44:01+00:00,235.0,2.5,239.0,3.4,12.41,47.59359,-54.27349
2023-07-30 02:54:01+00:00,204.0,4.99,212.0,5.89,12.41,47.59359,-54.27349
2023-07-30 03:04:01+00:00,226.0,3.41,247.0,4.16,12.41,47.59359,-54.27349
2023-07-30 03:14:00+00:00,260.0,4.47,265.0,5.13,12.41,47.59359,-54.27349
2023-07-30 03:24:00+00:00,234.0,4.47,236.0,5.02,12.41,47.59359,-54.27349
2023-07-30 03:34:00+00:00,193.0,4.42,199.0,5.57,12.41,47.59359,-54.27349
2023-07-30 03:44:00+00:00,200.0,4.2,206.0,5.22,12.41,47.59359,-54.27349
2023-07-30 03:54:00+00:00,217.0,4.34,217.0,5.12,12.41,47.59359,-54.27349
2023-07-30 04:04:00+00:00,200.0,4.35,194.0,5.02,12.41,47.59359,-54.27349
2023-07-30 04:14:00+00:00,199.0,3.33,214.0,4.05,12.41,47.59359,-54.27349
2023-07-30 04:24:00+00:00,207.0,1.73,199.0,2.39,12.41,47.59359,-54.27349
2023-07-30 04:34:00+00:00,219.0,2.84,225.0,3.39,12.41,47.59359,-54.27349
2023-07-30 04:44:00+00:00,239.0,0.86,232.0,1.12,12.41,47.59359,-54.27349
2023-07-30 04:54:00+00:00,238.0,1.17,249.0,1.48,12.41,47.59359,-54.27349
2023-07-30 05:04:00+00:00,249.0,2.81,250.0,3.14,12.41,47.59359,-54.27349
2023-07-30 05:14:00+00:00,251.0,4.12,255.0,4.76,12.33,47.59359,-54.27349
2023-07-30 05:24:00+00:00,260.0,3.89,266.0,5.21,12.33,47.59359,-54.27349
2023-07-30 05:34:00+00:00,270.0,3.91,276.0,4.71,12.33,47.59359,-54.27349
2023-07-30 05:44:00+00:00,242.0,2.42,244.0,3.73,12.33,47.59359,-54.27349
2023-07-30 05:54:00+00:00,237.0,3.64,238.0,4.06,12.33,47.59359,-54.27349
2023-07-30 06:04:00+00:00,272.0,3.2,272.0,3.41,12.33,47.59359,-54.27349
2023-07-30 06:14:00+00:00,252.0,2.14,254.0,2.55,12.33,47.59359,-54.27349
2023-07-30 06:24:00+00:00,187.0,3.2,196.0,3.6,12.33,47.59359,-54.27349
2023-07-30 06:34:00+00:00,213.0,3.15,214.0,3.55,12.33,47.59359,-54.27349
2023-07-30 06:44:00+00:00,218.0,3.59,221.0,4.04,12.33,47.59359,-54.27349
2023-07-30 06:54:00+00:00,214.0,2.28,214.0,2.57,12.33,47.59359,-54.27349
2023-07-30 07:04:00+00:00,202.0,3.6,206.0,4.0,12.33,47.59359,-54.27349
2023-07-30 07:14:01+00:00,223.0,2.58,222.0,3.21,12.33,47.59359,-54.27349
2023-07-30 07:24:01+00:00,258.0,2.84,249.0,3.31,12.33,47.59359,-54.27349
2023-07-30 07:34:01+00:00,303.0,2.26,301.0,2.56,12.33,47.59359,-54.27349
2023-07-30 07:44:01+00:00,248.0,1.27,242.0,1.6,12.33,47.59359,-54.27349
2023-07-30 07:54:01+00:00,222.0,0.7,229.0,0.84,12.33,47.59359,-54.27349
2023-07-30 08:04:01+00:00,326.0,1.83,327.0,1.98,12.33,47.59359,-54.27349
2023-07-30 08:14:01+00:00,329.0,0.78,329.0,0.99,12.25,47.59359,-54.27349
2023-07-30 08:24:01+00:00,336.0,1.34,340.0,1.59,12.25,47.59359,-54.27349
2023-07-30 08:34:01+00:00,348.0,1.09,351.0,1.3,12.25,47.59359,-54.27349
2023-07-30 08:44:01+00:00,21.0,0.73,19.0,0.89,12.25,47.59359,-54.27349
2023-07-30 08:54:01+00:00,31.0,0.53,29.0,0.64,12.25,47.59359,-54.27349
2023-07-30 09:04:01+00:00,345.0,0.84,342.0,1.06,12.25,47.59359,-54.27349
2023-07-30 09:14:01+00:00,345.0,1.28,347.0,1.41,12.33,47.59359,-54.27349
2023-07-30 09:24:01+00:00,5.0,0.72,7.0,0.86,12.33,47.59359,-54.27349
2023-07-30 09:34:01+00:00,357.0,1.64,356.0,1.82,12.33,47.59359,-54.27349
2023-07-30 09:44:01+00:00,357.0,2.02,357.0,2.2,12.33,47.59359,-54.27349
2023-07-30 09:54:01+00:00,2.0,2.22,359.0,2.42,12.33,47.59359,-54.27349
2023-07-30 10:04:01+00:00,351.0,1.94,356.0,2.19,12.33,47.59359,-54.27349
2023-07-30 10:14:01+00:00,358.0,1.22,356.0,1.42,12.65,47.59359,-54.27349
2023-07-30 10:24:01+00:00,35.0,1.09,35.0,1.23,12.65,47.59359,-54.27349
2023-07-30 10:34:01+00:00,57.0,0.5,45.0,0.61,12.65,47.59359,-54.27349
2023-07-30 10:44:01+00:00,28.0,0.8,25.0,0.95,12.65,47.59359,-54.27349
2023-07-30 10:54:01+00:00,183.0,0.72,188.0,0.87,12.65,47.59359,-54.27349
2023-07-30 11:04:01+00:00,161.0,0.78,168.0,0.91,12.65,47.59359,-54.27349
2023-07-30 11:14:00+00:00,143.0,0.37,153.0,0.48,12.89,47.59359,-54.27349
2023-07-30 11:24:00+00:00,41.0,0.83,44.0,1.0,12.89,47.59359,-54.27349
2023-07-30 11:34:00+00:00,235.0,0.31,231.0,0.52,12.89,47.59359,-54.27349
2023-07-30 11:44:00+00:00,252.0,0.43,261.0,0.56,12.89,47.59359,-54.27349
2023-07-30 11:54:00+00:00,318.0,0.92,322.0,1.04,12.89,47.59359,-54.27349
2023-07-30 12:04:00+00:00,257.0,0.42,255.0,0.55,12.89,47.59359,-54.27349
2023-07-30 12:14:01+00:00,201.0,1.67,197.0,1.8,13.21,47.59359,-54.27349
2023-07-30 12:24:01+00:00,231.0,1.87,228.0,2.29,13.21,47.59359,-54.27349
2023-07-30 12:34:01+00:00,231.0,1.32,235.0,1.51,13.21,47.59359,-54.27349
2023-07-30 12:44:01+00:00,202.0,0.94,208.0,1.11,13.21,47.59359,-54.27349
2023-07-30 12:54:01+00:00,347.0,1.32,346.0,1.59,13.21,47.59359,-54.27349
2023-07-30 13:04:01+00:00,11.0,1.56,9.0,1.83,13.21,47.59359,-54.27349
2023-07-30 13:14:01+00:00,16.0,2.54,11.0,2.97,12.97,47.59359,-54.27349
2023-07-30 13:24:01+00:00,29.0,3.8,29.0,4.1,12.97,47.59359,-54.27349
2023-07-30 13:34:01+00:00,20.0,5.33,21.0,5.63,12.97,47.59359,-54.27349
2023-07-30 13:44:01+00:00,23.0,5.13,25.0,5.91,12.97,47.59359,-54.27349
2023-07-30 13:54:01+00:00,28.0,3.96,24.0,4.32,12.97,47.59359,-54.27349
2023-07-30 14:04:01+00:00,37.0,4.82,38.0,5.21,12.97,47.59359,-54.27349
2023-07-30 14:14:00+00:00,65.0,3.76,69.0,4.4,13.53,47.59359,-54.27349
2023-07-30 14:24:00+00:00,64.0,4.57,58.0,4.89,13.53,47.59359,-54.27349
2023-07-30 14:34:00+00:00,73.0,3.95,70.0,4.51,13.53,47.59359,-54.27349
2023-07-30 14:44:00+00:00,81.0,2.13,59.0,3.41,13.53,47.59359,-54.27349
2023-07-30 14:54:00+00:00,72.0,2.07,52.0,2.76,13.53,47.59359,-54.27349
2023-07-30 15:04:00+00:00,68.0,2.8,73.0,3.39,13.53,47.59359,-54.27349
2023-07-30 15:14:00+00:00,60.0,3.54,62.0,4.1,13.6,47.59359,-54.27349
2023-07-30 15:24:00+00:00,51.0,5.04,48.0,5.55,13.6,47.59359,-54.27349
2023-07-30 15:34:00+00:00,51.0,4.5,51.0,5.1,13.6,47.59359,-54.27349
2023-07-30 15:44:00+00:00,46.0,4.23,46.0,4.91,13.6,47.59359,-54.27349
2023-07-30 15:54:00+00:00,45.0,4.61,45.0,5.14,13.6,47.59359,-54.27349
2023-07-30 16:04:00+00:00,50.0,5.35,50.0,5.78,13.6,47.59359,-54.27349
2023-07-30 16:14:00+00:00,52.0,4.01,54.0,4.45,13.53,47.59359,-54.27349
2023-07-30 16:24:00+00:00,43.0,5.38,43.0,5.82,13.53,47.59359,-54.27349
2023-07-30 16:34:00+00:00,49.0,3.5,51.0,3.72,13.53,47.59359,-54.27349
2023-07-30 16:44:00+00:00,64.0,4.05,59.0,4.45,13.53,47.59359,-54.27349
2023-07-30 16:54:00+00:00,62.0,6.28,60.0,7.16,13.53,47.59359,-54.27349
2023-07-30 17:04:00+00:00,73.0,6.72,74.0,7.5,13.53,47.59359,-54.27349
2023-07-30 17:14:01+00:00,58.0,5.45,67.0,7.37,13.29,47.59359,-54.27349
2023-07-30 17:24:01+00:00,53.0,8.13,53.0,9.0,13.29,47.59359,-54.27349
2023-07-30 17:34:01+00:00,53.0,8.4,54.0,9.2,13.29,47.59359,-54.27349
2023-07-30 17:44:01+00:00,53.0,7.81,53.0,9.08,13.29,47.59359,-54.27349
2023-07-30 17:54:01+00:00,59.0,8.53,63.0,9.83,13.29,47.59359,-54.27349
2023-07-30 18:04:01+00:00,55.0,8.34,53.0,9.09,13.29,47.59359,-54.27349
2023-07-30 18:14:01+00:00,58.0,7.79,60.0,8.45,13.29,47.59359,-54.27349
2023-07-30 18:24:01+00:00,91.0,4.44,89.0,5.99,13.29,47.59359,-54.27349
2023-07-30 18:34:01+00:00,80.0,5.59,75.0,7.36,13.29,47.59359,-54.27349
2023-07-30 18:44:01+00:00,79.0,5.92,70.0,9.03,13.29,47.59359,-54.27349
2023-07-30 18:54:01+00:00,84.0,5.07,76.0,6.63,13.29,47.59359,-54.27349
2023-07-30 19:04:01+00:00,81.0,5.0,81.0,7.56,13.29,47.59359,-54.27349
2023-07-30 19:14:00+00:00,90.0,3.54,87.0,6.27,13.37,47.59359,-54.27349
2023-07-30 19:24:00+00:00,78.0,3.91,79.0,5.84,13.37,47.59359,-54.27349
2023-07-30 19:34:00+00:00,22.0,4.78,18.0,6.17,13.37,47.59359,-54.27349
2023-07-30 19:44:00+00:00,27.0,7.25,31.0,8.52,13.37,47.59359,-54.27349
2023-07-30 19:54:00+00:00,30.0,7.23,40.0,8.23,13.37,47.59359,-54.27349
2023-07-30 20:04:00+00:00,38.0,9.24,37.0,10.13,13.37,47.59359,-54.27349
2023-07-30 20:14:00+00:00,28.0,8.05,35.0,8.87,13.29,47.59359,-54.27349
2023-07-30 20:24:00+00:00,33.0,7.94,34.0,9.16,13.29,47.59359,-54.27349
2023-07-30 20:34:00+00:00,31.0,7.66,30.0,8.68,13.29,47.59359,-54.27349
2023-07-30 20:44:00+00:00,42.0,8.62,38.0,9.26,13.29,47.59359,-54.27349
2023-07-30 20:54:00+00:00,41.0,7.98,41.0,8.98,13.29,47.59359,-54.27349
2023-07-30 21:04:00+00:00,39.0,6.78,38.0,7.48,13.29,47.59359,-54.27349
2023-07-30 21:14:00+00:00,28.0,6.87,23.0,7.75,13.44,47.59359,-54.27349
2023-07-30 21:24:00+00:00,32.0,7.65,36.0,8.13,13.44,47.59359,-54.27349
2023-07-30 21:34:00+00:00,32.0,7.06,35.0,7.84,13.44,47.59359,-54.27349
2023-07-30 21:44:00+00:00,30.0,6.13,32.0,7.28,13.44,47.59359,-54.27349
2023-07-30 21:54:00+00:00,29.0,6.41,32.0,7.21,13.44,47.59359,-54.27349
2023-07-30 22:04:00+00:00,41.0,6.05,46.0,6.94,13.44,47.59359,-54.27349
2023-07-30 22:14:00+00:00,36.0,5.61,37.0,6.33,12.89,47.59359,-54.27349
2023-07-30 22:24:00+00:00,23.0,5.52,26.0,6.2,12.89,47.59359,-54.27349
2023-07-30 22:34:00+00:00,30.0,5.97,32.0,6.57,12.89,47.59359,-54.27349
2023-07-30 22:44:00+00:00,23.0,6.49,26.0,7.25,12.89,47.59359,-54.27349
2023-07-30 22:54:00+00:00,20.0,6.27,20.0,6.76,12.89,47.59359,-54.27349
2023-07-30 23:04:00+00:00,31.0,6.36,33.0,7.04,12.89,47.59359,-54.27349
2023-07-30 23:14:01+00:00,29.0,5.55,31.0,6.65,12.41,47.59359,-54.27349
2023-07-30 23:24:01+00:00,38.0,4.92,45.0,5.58,12.41,47.59359,-54.27349
2023-07-30 23:34:01+00:00,35.0,6.69,34.0,7.16,12.41,47.59359,-54.27349
2023-07-30 23:44:01+00:00,47.0,6.46,50.0,7.2,12.41,47.59359,-54.27349
2023-07-30 23:54:01+00:00,53.0,5.64,52.0,6.67,12.41,47.59359,-54.27349
